STARLINK-1934, 46792

Orbit data source: Space-Track

STARLINK-1934, 46792 is a payload satellite owned by SpaceX/Seattle (US) in LEO that was launched on Sat, 24 Oct 2020 UTC via an FALCON 9 launch vehicle from the Air Force Eastern Test Range (AFETR). Payload-class satellites include a variety of spacecraft equipped with specific instruments for various scientific and technological missions. These include communications satellites like Starlink; space stations such as the ISS; scientific satellites like the Hubble; Earth observation satellites from companies like Planet Labs, Umbra, and HawkEye 360; GPS; miniature CubeSats for education and research; and military/defense satellites.

Loading next visibility...
Identifier
46792, 2020-074BF
Orbit
LEO
Country
Flag of USUS
Related business
Manufacturer
SpaceX/Seattle
Mission
Partially operational Commercial Communications
Bus & Motor
STARLINK, Unknown motor
Mass
260 kg wet, ~248 kg dry
Launch date (UTC)
2020-10-24 (5 years ago)
Launch vehicle
FALCON 9
Launch site
Air Force Eastern Test Range (AFETR)
Object type
Payload
Rocket body
Debris
Shape & HBR
Box + 1 Pan, 10.1 m
Radar Cross Section
13.562 m², Large (>1 m²)

Expand to show TLE details & history
Last TLE update: 5 hours ago

TLE from 5 hours ago
0 STARLINK-1934
1 46792U 20074BF  26036.33335648  .00235475  00000-0  23296-2 0  9993
2 46792  53.0463  67.1058 0005984 313.7790 210.7324 15.64574367  5938
Epoch: 2026-02-05T08:00Z
TLE epoch observation values (Epoch: 2026-02-05T08:00:01.999Z)
Latitude
12.34663°
Longitude
-17.81393°
Altitude
378.071 km
Speed
7.683 km/s
True Right ascension
15h 50m 43s
True Declination
12° 16' 15"
Sunlit
Object was in daylight at epoch
Visualization orbit readout
Latitude
Unknown
Longitude
Unknown
Altitude
Unknown
Speed
Unknown
Apparent Right ascension
Unknown
Apparent Declination
Unknown
Sunlit
N/A
Visualization observer readout
Local Sidereal Time
15:13:58
Azimuth
Unknown
Elevation
Unknown
Doppler factor
Unknown
Orbital elements
Apogee altitude
378.783 km
Perigee altitude
370.701 km
Semi-major axis
6,752.879 km
Eccentricity
0.0006
Inclination
53.0463°
RAAN
67.1058°
Arg. of periapsis
313.779°
True anomaly
210.69738°
Mean anomaly
210.7324°
Eccentric anomaly
210.71489°
Mean motion
3.9112 °/min
Orbital period
92.04 mins
BSTAR
0.0023296
Loading maneuver chart data...
Computing Atmospheric mass density...

Documentation

Showing up to 5 results
|